Regional Weather Roundup
Issued by NWS

Home | Current Version | Previous Version | Text Only | Print | Product List | Glossary Off
Versions: 1 2 3 4 5 6 7 8 9 10 11 12 13 14 15 16 17 18 19 20 21 22 23 24 25 26 27 28

000
ASUS45 KSLC 021810
RWRUT

UTAH REGIONAL WEATHER ROUNDUP
NATIONAL WEATHER SERVICE SALT LAKE CITY UT
1200 PM MDT MON MAY 02 2016

UTZ001>011-023>025-021900-

NORTHERN UTAH

CITY           SKY/WX    TMP DP  RH WIND       PRES   REMARKS
BRIGHAM CITY   SUNNY     59  26  27 CALM      30.23S
HILL AFB       SUNNY     58  30  34 VRB6      30.23S
LOGAN          SUNNY     56  31  38 N6        30.24S
OGDEN          SUNNY     60  27  28 CALM      30.22S
PROVO AIRPORT  MOSUNNY   57  32  38 W9        30.22F
SALT LAKE CITY MOSUNNY   64  27  24 NW7       30.21R
VERNAL         SUNNY     54  26  34 VRB3      30.26S
WENDOVER       SUNNY     57  34  41 SE7       30.24R
HEBER CITY     SUNNY     52  27  37 CALM      30.24F

$$

UTZ012>022-026-027-021900-

SOUTHERN/CENTRAL UTAH

CITY           SKY/WX    TMP DP  RH WIND       PRES   REMARKS
BLANDING       CLOUDY    47  37  65 S3        30.35S
BRYCE CANYON   CLOUDY    46  33  60 SE12      30.27F
CEDAR CITY     MOSUNNY   58  32  37 CALM      30.20S
DELTA          CLOUDY    57  41  54 W6        30.22S
HANKSVILLE     PTSUNNY   61  36  39 N3        30.24F
MILFORD        MOSUNNY   61  35  37 NE5       30.20F
MOAB/CYNLANDS  MOSUNNY   60  37  42 CALM      30.21F
PRICE          MOSUNNY   56  32  40 E6        30.24F
ST GEORGE      CLEAR     64  41  42 W3        30.17F
KANAB          MOSUNNY   61  39  44 E13       30.24F

$$

REGIONAL REPORTS     COLORADO/ARIZONA

CITY           SKY/WX    TMP DP  RH WIND       PRES   REMARKS
CRAIG, CO      SUNNY     52  25  35 W9        30.26F
GRAND JUNCTION PTSUNNY   58  37  45 W6        30.22F
RIFLE          CLOUDY    55  32  41 CALM      30.22F
MONTROSE       MOSUNNY   54  36  50 MISG      30.26F
CORTEZ         PTSUNNY   52  35  52 W8        30.26F
PAGE, AZ       CLOUDY    59  41  51 MISG      30.21F
GRAND CANYON   MOSUNNY   50  36  58 NE14      30.26R
KINGMAN        SUNNY     70  39  32 VRB5      30.12F
FLAGSTAFF      PTSUNNY   44  37  76 E8        30.25S

$$

REGIONAL REPORTS    NEVADA/IDAHO/WYOMING

CITY           SKY/WX    TMP DP  RH WIND       PRES   REMARKS
LAS VEGAS, NV  MOSUNNY   74  38  27 NE10      30.08S
ELY            CLOUDY    54  29  38 NE3       30.23F
ELKO           SUNNY     59  34  39 VRB3      30.20F
POCATELLO, ID  SUNNY     59  23  25 SW3       30.25S
BURLEY         SUNNY     59  31  34 E3        30.21S
EVANSTON, WY   SUNNY     48  17  29 NE3       30.29S
ROCK SPRINGS   SUNNY    N/A N/A N/A MISG      30.29F
KEMMERER         N/A     45  19  36 CALM      30.30F

$$




USA.gov is the U.S. government's official web portal to all federal, state and local government web resources and services.